When you browse on this site, cookies collect data to enhance your experience and personalize the content and advertising you see.
Visit our Privacy Policy to learn more. By continuing to use the site, you agree to this use of cookies and data.
  • Em Portugal
  • Lista de países
  • Para 7 dias
  • Temperatura da água
  • Mapas de satélite
  • Mapa do tempo
  • Widgets de tempo
  • user-avatar
    Iniciar Sessão

    Previsão horária em Milavino

    Hoje, 18 Fevereiro, Segunda-feira

    Tempo Temperatura Precipitação Vento Pressão Humidade
    00:00 -5°C° 0 mm 4 m/s 741 mmHg 79%
    01:00 -5°C° 0 mm 4 m/s 741 mmHg 81%
    02:00 -7°C° 0 mm 4 m/s 742 mmHg 83%
    03:00 -6°C° 0 mm 3 m/s 743 mmHg 84%
    04:00 -6°C° 0 mm 3 m/s 743 mmHg 85%
    05:00 -7°C° 0 mm 3 m/s 744 mmHg 85%
    06:00 -7°C° 0 mm 3 m/s 744 mmHg 85%
    07:00 -7°C° 0 mm 3 m/s 745 mmHg 85%
    08:00 -7°C° 0 mm 3 m/s 746 mmHg 84%
    09:00 -6°C° 0 mm 3 m/s 746 mmHg 82%
    10:00 -6°C° 0 mm 3 m/s 746 mmHg 80%
    11:00 -4°C° 0 mm 2 m/s 747 mmHg 77%
    12:00 -4°C° 0 mm 2 m/s 747 mmHg 74%
    13:00 -3°C° 0 mm 2 m/s 747 mmHg 72%
    14:00 -3°C° 0 mm 2 m/s 747 mmHg 69%
    15:00 -2°C° 0 mm 1 m/s 747 mmHg 73%
    16:00 -2°C° 0 mm 1 m/s 747 mmHg 78%
    17:00 -3°C° 0 mm 1 m/s 747 mmHg 82%
    18:00 -4°C° 0 mm 1 m/s 747 mmHg 84%
    19:00 -4°C° 0 mm 1 m/s 747 mmHg 85%
    20:00 -4°C° 0 mm 1 m/s 747 mmHg 87%
    21:00 -6°C° 0 mm 2 m/s 747 mmHg 86%
    22:00 -6°C° 0 mm 2 m/s 746 mmHg 86%
    23:00 -6°C° 0 mm 2 m/s 746 mmHg 85%

    Amanhã, 19 Fevereiro, Terça-feira

    Tempo Temperatura Precipitação Vento Pressão Humidade
    00:00 -7°C° 0 mm 3 m/s 746 mmHg 84%
    01:00 -7°C° 0 mm 3 m/s 745 mmHg 83%
    02:00 -8°C° 0 mm 4 m/s 745 mmHg 82%
    03:00 -7°C° 0 mm 4 m/s 744 mmHg 80%
    04:00 -7°C° 0 mm 4 m/s 744 mmHg 78%
    05:00 -7°C° 0 mm 4 m/s 743 mmHg 77%
    06:00 -7°C° 0 mm 4 m/s 743 mmHg 77%
    07:00 -7°C° 0 mm 5 m/s 742 mmHg 77%
    08:00 -6°C° 0 mm 5 m/s 742 mmHg 77%
    09:00 -5°C° 0 mm 5 m/s 741 mmHg 77%
    10:00 -4°C° 0 mm 5 m/s 741 mmHg 76%
    11:00 -2°C° 0 mm 5 m/s 740 mmHg 75%
    12:00 -1°C° 0 mm 5 m/s 740 mmHg 76%
    13:00 -1°C° 0 mm 5 m/s 739 mmHg 76%
    14:00 0°C° 0 mm 5 m/s 739 mmHg 76%
    15:00 -1°C° 0 mm 5 m/s 738 mmHg 79%
    16:00 -2°C° 0 mm 5 m/s 738 mmHg 81%
    17:00 -2°C° 0 mm 5 m/s 737 mmHg 84%
    18:00 -2°C° 0 mm 5 m/s 736 mmHg 85%
    19:00 -2°C° 0 mm 5 m/s 736 mmHg 87%
    20:00 -2°C° 0 mm 5 m/s 735 mmHg 88%
    21:00 -2°C° 0 mm 5 m/s 735 mmHg 89%
    22:00 -3°C° 0 mm 6 m/s 734 mmHg 89%
    23:00 -2°C° 0 mm 6 m/s 733 mmHg 90%

    Depois de amanhã, 20 Fevereiro, Quarta-feira

    Tempo Temperatura Precipitação Vento Pressão Humidade
    00:00 -1°C° 0.1 mm 5 m/s 733 mmHg 90%
    01:00 -1°C° 0.1 mm 5 m/s 732 mmHg 91%
    02:00 -1°C° 0.1 mm 5 m/s 731 mmHg 91%
    03:00 -1°C° 0.3 mm 5 m/s 731 mmHg 91%
    04:00 0°C° 0.3 mm 5 m/s 731 mmHg 91%
    05:00 0°C° 0.3 mm 5 m/s 730 mmHg 91%
    06:00 0°C° 0.1 mm 5 m/s 730 mmHg 91%
    07:00 0°C° 0.1 mm 5 m/s 730 mmHg 92%
    08:00 0°C° 0.1 mm 5 m/s 730 mmHg 93%
    09:00 0°C° 0.2 mm 5 m/s 730 mmHg 91%
    10:00 0°C° 0.2 mm 5 m/s 730 mmHg 89%
    11:00 0°C° 0.2 mm 5 m/s 730 mmHg 87%
    12:00 0°C° 0.1 mm 5 m/s 730 mmHg 86%
    13:00 0°C° 0.1 mm 5 m/s 730 mmHg 84%
    14:00 +1°C° 0.1 mm 5 m/s 729 mmHg 83%
    15:00 0°C° 0.2 mm 5 m/s 729 mmHg 84%
    16:00 0°C° 0.2 mm 5 m/s 729 mmHg 85%
    17:00 0°C° 0.2 mm 5 m/s 729 mmHg 86%
    18:00 -1°C° 0.5 mm 5 m/s 729 mmHg 83%
    19:00 -2°C° 0.5 mm 6 m/s 729 mmHg 81%
    20:00 -2°C° 0.5 mm 6 m/s 729 mmHg 78%
    21:00 -4°C° 0 mm 5 m/s 729 mmHg 79%
    22:00 -5°C° 0 mm 5 m/s 729 mmHg 80%
    23:00 -6°C° 0 mm 5 m/s 729 mmHg 81%

    21 Fevereiro, Quinta-feira

    Tempo Temperatura Precipitação Vento Pressão Humidade
    00:00 -6°C° 0.3 mm 5 m/s 729 mmHg 82%
    01:00 -6°C° 0.3 mm 6 m/s 729 mmHg 83%
    02:00 -5°C° 0.3 mm 6 m/s 730 mmHg 84%
    03:00 -6°C° 0.2 mm 6 m/s 730 mmHg 83%
    04:00 -6°C° 0.2 mm 6 m/s 730 mmHg 82%
    05:00 -7°C° 0.2 mm 7 m/s 730 mmHg 81%
    06:00 -7°C° 0.1 mm 7 m/s 731 mmHg 80%
    07:00 -7°C° 0.1 mm 7 m/s 731 mmHg 79%
    08:00 -8°C° 0.1 mm 7 m/s 732 mmHg 78%
    09:00 -8°C° 0.1 mm 7 m/s 732 mmHg 77%
    10:00 -8°C° 0.1 mm 7 m/s 733 mmHg 76%
    11:00 -9°C° 0.1 mm 7 m/s 734 mmHg 75%
    12:00 -9°C° 0.1 mm 7 m/s 735 mmHg 74%
    13:00 -8°C° 0.1 mm 7 m/s 735 mmHg 73%
    14:00 -8°C° 0.1 mm 7 m/s 736 mmHg 72%
    15:00 -9°C° 0.1 mm 7 m/s 737 mmHg 72%
    16:00 -9°C° 0.1 mm 7 m/s 738 mmHg 72%
    17:00 -10°C° 0.1 mm 6 m/s 739 mmHg 73%
    18:00 -10°C° 0 mm 6 m/s 740 mmHg 73%
    19:00 -11°C° 0 mm 6 m/s 741 mmHg 73%
    20:00 -11°C° 0 mm 6 m/s 742 mmHg 73%
    21:00 -12°C° 0 mm 6 m/s 743 mmHg 73%
    22:00 -12°C° 0 mm 6 m/s 743 mmHg 73%
    23:00 -12°C° 0 mm 6 m/s 744 mmHg 73%

    22 Fevereiro, Sexta-feira

    Tempo Temperatura Precipitação Vento Pressão Humidade
    00:00 -13°C° 0 mm 5 m/s 745 mmHg 73%
    01:00 -13°C° 0 mm 5 m/s 746 mmHg 74%
    02:00 -14°C° 0 mm 5 m/s 746 mmHg 74%
    03:00 -14°C° 0 mm 5 m/s 747 mmHg 75%
    04:00 -14°C° 0 mm 5 m/s 748 mmHg 76%
    05:00 -14°C° 0 mm 5 m/s 748 mmHg 76%
    06:00 -14°C° 0 mm 5 m/s 749 mmHg 75%
    07:00 -14°C° 0 mm 5 m/s 750 mmHg 73%
    08:00 -14°C° 0 mm 5 m/s 750 mmHg 72%
    09:00 -13°C° 0 mm 5 m/s 751 mmHg 69%
    10:00 -12°C° 0 mm 6 m/s 752 mmHg 67%
    11:00 -11°C° 0 mm 6 m/s 752 mmHg 65%
    12:00 -11°C° 0 mm 6 m/s 752 mmHg 64%
    13:00 -11°C° 0 mm 6 m/s 753 mmHg 63%
    14:00 -10°C° 0 mm 6 m/s 753 mmHg 61%
    15:00 -11°C° 0 mm 5 m/s 753 mmHg 65%
    16:00 -11°C° 0 mm 5 m/s 754 mmHg 69%
    17:00 -12°C° 0 mm 5 m/s 754 mmHg 72%
    18:00 -12°C° 0 mm 5 m/s 755 mmHg 74%
    19:00 -12°C° 0 mm 5 m/s 755 mmHg 77%
    20:00 -12°C° 0 mm 5 m/s 756 mmHg 79%
    21:00 -12°C° 0 mm 4 m/s 756 mmHg 81%
    22:00 -12°C° 0 mm 4 m/s 757 mmHg 83%
    23:00 -12°C° 0 mm 3 m/s 757 mmHg 85%

    23 Fevereiro, Sábado

    Tempo Temperatura Precipitação Vento Pressão Humidade
    00:00 -13°C° 0 mm 3 m/s 757 mmHg 87%
    01:00 -12°C° 0 mm 2 m/s 757 mmHg 89%
    02:00 -12°C° 0 mm 2 m/s 757 mmHg 91%
    03:00 -12°C° 0 mm 2 m/s 757 mmHg 88%
    04:00 -9°C° 0 mm 1 m/s 756 mmHg 86%
    05:00 -9°C° 0 mm 1 m/s 756 mmHg 84%
    06:00 -9°C° 0 mm 2 m/s 756 mmHg 79%
    07:00 -10°C° 0 mm 3 m/s 756 mmHg 74%
    08:00 -9°C° 0 mm 3 m/s 755 mmHg 70%
    09:00 -10°C° 0.1 mm 4 m/s 755 mmHg 71%
    10:00 -9°C° 0.1 mm 4 m/s 754 mmHg 73%
    11:00 -10°C° 0.1 mm 5 m/s 753 mmHg 75%
    12:00 -10°C° 0.5 mm 5 m/s 753 mmHg 80%
    13:00 -10°C° 0.5 mm 5 m/s 752 mmHg 86%
    14:00 -10°C° 0.5 mm 5 m/s 752 mmHg 91%
    15:00 -8°C° 0.3 mm 4 m/s 751 mmHg 91%
    16:00 -8°C° 0.3 mm 4 m/s 751 mmHg 90%
    17:00 -8°C° 0.3 mm 4 m/s 751 mmHg 89%
    18:00 -8°C° 0.1 mm 4 m/s 750 mmHg 90%
    19:00 -7°C° 0.1 mm 3 m/s 750 mmHg 91%
    20:00 -6°C° 0.1 mm 3 m/s 750 mmHg 92%
    21:00 -6°C° 0 mm 3 m/s 750 mmHg 93%
    22:00 -6°C° 0 mm 3 m/s 750 mmHg 94%
    23:00 -6°C° 0 mm 3 m/s 749 mmHg 94%
    Mostrar mais